timestamp,wind_dir_avg,wind_spd_max_dir,wind_spd_avg,wind_spd_gust,battery_voltage,lat,long
2019-01-27 00:00:00+00:00,234.0,235.0,5.1,5.79,,47.59359,-54.27349
2019-01-27 00:10:00+00:00,238.0,233.0,4.07,5.14,,47.59359,-54.27349
2019-01-27 00:20:00+00:00,239.0,235.0,4.06,4.77,,47.59359,-54.27349
2019-01-27 00:30:00+00:00,250.0,251.0,4.55,5.3,,47.59359,-54.27349
2019-01-27 00:40:00+00:00,250.0,255.0,5.01,5.62,,47.59359,-54.27349
2019-01-27 00:50:00+00:00,246.0,247.0,4.95,5.36,,47.59359,-54.27349
2019-01-27 01:00:00+00:00,260.0,264.0,4.86,5.51,,47.59359,-54.27349
2019-01-27 01:10:00+00:00,252.0,254.0,3.93,4.56,,47.59359,-54.27349
2019-01-27 01:20:00+00:00,245.0,251.0,3.78,4.34,,47.59359,-54.27349
2019-01-27 01:30:00+00:00,258.0,258.0,3.82,4.4,,47.59359,-54.27349
2019-01-27 01:40:00+00:00,253.0,254.0,3.54,4.02,,47.59359,-54.27349
2019-01-27 01:50:00+00:00,263.0,261.0,4.05,4.71,,47.59359,-54.27349
2019-01-27 02:00:00+00:00,285.0,284.0,3.86,4.63,,47.59359,-54.27349
2019-01-27 02:10:00+00:00,283.0,289.0,3.21,3.64,,47.59359,-54.27349
2019-01-27 02:20:00+00:00,290.0,291.0,3.4,3.77,,47.59359,-54.27349
2019-01-27 02:30:00+00:00,287.0,287.0,2.99,3.32,,47.59359,-54.27349
2019-01-27 02:40:00+00:00,306.0,308.0,2.84,3.19,,47.59359,-54.27349
2019-01-27 02:50:00+00:00,325.0,316.0,2.41,2.99,,47.59359,-54.27349
2019-01-27 03:00:00+00:00,304.0,301.0,1.66,1.9,,47.59359,-54.27349
2019-01-27 03:10:00+00:00,272.0,279.0,1.54,1.83,,47.59359,-54.27349
2019-01-27 03:20:00+00:00,298.0,312.0,1.01,1.33,,47.59359,-54.27349
2019-01-27 03:30:00+00:00,349.0,337.0,3.61,4.06,,47.59359,-54.27349
2019-01-27 03:40:00+00:00,346.0,345.0,2.33,2.68,,47.59359,-54.27349
2019-01-27 03:50:00+00:00,14.0,8.0,1.55,2.12,,47.59359,-54.27349
2019-01-27 04:00:00+00:00,15.0,10.0,2.22,2.52,,47.59359,-54.27349
2019-01-27 04:10:00+00:00,6.0,4.0,3.07,3.71,,47.59359,-54.27349
2019-01-27 04:20:00+00:00,14.0,28.0,2.66,3.11,,47.59359,-54.27349
2019-01-27 04:30:00+00:00,32.0,40.0,2.68,3.32,,47.59359,-54.27349
2019-01-27 04:40:00+00:00,10.0,2.0,1.74,2.29,,47.59359,-54.27349
2019-01-27 04:50:00+00:00,13.0,13.0,2.1,2.65,,47.59359,-54.27349
2019-01-27 05:00:00+00:00,33.0,28.0,2.05,2.41,,47.59359,-54.27349
2019-01-27 05:10:00+00:00,49.0,59.0,1.82,2.17,,47.59359,-54.27349
2019-01-27 05:20:00+00:00,36.0,37.0,2.21,2.6,,47.59359,-54.27349
2019-01-27 05:30:00+00:00,30.0,44.0,1.89,2.24,,47.59359,-54.27349
2019-01-27 05:40:00+00:00,48.0,40.0,1.43,2.12,,47.59359,-54.27349
2019-01-27 05:50:00+00:00,46.0,44.0,2.39,2.79,,47.59359,-54.27349
2019-01-27 06:00:00+00:00,48.0,55.0,1.96,2.4,,47.59359,-54.27349
2019-01-27 06:10:00+00:00,47.0,47.0,2.35,2.71,,47.59359,-54.27349
2019-01-27 06:20:00+00:00,25.0,28.0,2.83,3.19,,47.59359,-54.27349
2019-01-27 06:30:00+00:00,11.0,8.0,4.12,4.55,,47.59359,-54.27349
2019-01-27 06:40:00+00:00,10.0,12.0,4.47,4.89,,47.59359,-54.27349
2019-01-27 06:50:00+00:00,14.0,14.0,5.16,5.56,,47.59359,-54.27349
2019-01-27 07:00:00+00:00,20.0,19.0,4.49,5.25,,47.59359,-54.27349
2019-01-27 07:10:00+00:00,29.0,29.0,4.69,5.6,,47.59359,-54.27349
2019-01-27 07:20:00+00:00,51.0,55.0,6.64,7.2,,47.59359,-54.27349
2019-01-27 07:30:00+00:00,53.0,54.0,6.96,7.58,,47.59359,-54.27349
2019-01-27 07:40:00+00:00,51.0,54.0,7.98,9.02,,47.59359,-54.27349
2019-01-27 07:50:00+00:00,61.0,58.0,6.78,7.5,,47.59359,-54.27349
2019-01-27 08:00:00+00:00,58.0,57.0,6.58,7.45,,47.59359,-54.27349
2019-01-27 08:10:00+00:00,80.0,89.0,6.0,6.57,,47.59359,-54.27349
2019-01-27 08:20:00+00:00,75.0,70.0,6.04,6.64,,47.59359,-54.27349
2019-01-27 08:30:00+00:00,82.0,80.0,5.55,7.01,,47.59359,-54.27349
2019-01-27 08:40:00+00:00,83.0,83.0,6.06,6.9,,47.59359,-54.27349
2019-01-27 08:50:00+00:00,89.0,97.0,3.97,5.45,,47.59359,-54.27349
2019-01-27 09:00:00+00:00,73.0,75.0,4.72,5.92,,47.59359,-54.27349
2019-01-27 09:10:00+00:00,79.0,77.0,5.04,5.99,,47.59359,-54.27349
2019-01-27 09:20:00+00:00,89.0,82.0,4.07,5.34,,47.59359,-54.27349
2019-01-27 09:30:00+00:00,79.0,79.0,4.6,5.42,,47.59359,-54.27349
2019-01-27 09:40:00+00:00,83.0,86.0,3.41,5.17,,47.59359,-54.27349
2019-01-27 09:50:00+00:00,84.0,82.0,4.25,5.21,,47.59359,-54.27349
2019-01-27 10:00:00+00:00,78.0,82.0,3.8,4.28,,47.59359,-54.27349
2019-01-27 10:10:00+00:00,88.0,78.0,2.74,3.79,,47.59359,-54.27349
2019-01-27 10:20:00+00:00,79.0,80.0,3.8,4.5,,47.59359,-54.27349
2019-01-27 10:30:00+00:00,90.0,81.0,2.94,3.72,,47.59359,-54.27349
2019-01-27 10:40:00+00:00,73.0,69.0,3.45,4.63,,47.59359,-54.27349
2019-01-27 10:50:00+00:00,59.0,56.0,4.47,5.19,,47.59359,-54.27349
2019-01-27 11:00:00+00:00,51.0,49.0,4.41,5.31,,47.59359,-54.27349
2019-01-27 11:10:00+00:00,65.0,63.0,4.63,5.56,,47.59359,-54.27349
2019-01-27 11:20:00+00:00,68.0,73.0,4.19,4.9,,47.59359,-54.27349
2019-01-27 11:30:00+00:00,85.0,76.0,3.15,3.98,,47.59359,-54.27349
2019-01-27 11:40:00+00:00,96.0,90.0,2.67,4.21,,47.59359,-54.27349
2019-01-27 11:50:00+00:00,87.0,86.0,3.01,4.18,,47.59359,-54.27349
2019-01-27 12:00:00+00:00,87.0,77.0,2.88,3.52,,47.59359,-54.27349
2019-01-27 12:10:00+00:00,106.0,108.0,2.16,3.24,,47.59359,-54.27349
2019-01-27 12:20:00+00:00,130.0,124.0,4.14,5.14,,47.59359,-54.27349
2019-01-27 12:30:00+00:00,143.0,155.0,3.83,4.61,,47.59359,-54.27349
2019-01-27 12:40:00+00:00,137.0,132.0,3.71,4.71,,47.59359,-54.27349
2019-01-27 12:50:00+00:00,141.0,142.0,3.9,4.86,,47.59359,-54.27349
2019-01-27 13:00:00+00:00,145.0,140.0,5.56,6.57,,47.59359,-54.27349
2019-01-27 13:10:00+00:00,143.0,150.0,5.8,6.94,,47.59359,-54.27349
2019-01-27 13:20:00+00:00,140.0,138.0,6.36,7.76,,47.59359,-54.27349
2019-01-27 13:30:00+00:00,139.0,134.0,5.47,7.06,,47.59359,-54.27349
2019-01-27 13:40:00+00:00,142.0,141.0,6.13,7.6,,47.59359,-54.27349
2019-01-27 13:50:00+00:00,145.0,144.0,6.0,6.85,,47.59359,-54.27349
2019-01-27 14:00:00+00:00,148.0,145.0,6.25,7.14,,47.59359,-54.27349
2019-01-27 14:10:00+00:00,139.0,138.0,6.79,7.92,,47.59359,-54.27349
2019-01-27 14:20:00+00:00,151.0,149.0,7.19,8.44,,47.59359,-54.27349
2019-01-27 14:30:00+00:00,143.0,146.0,6.12,7.19,,47.59359,-54.27349
2019-01-27 14:40:00+00:00,147.0,146.0,6.33,7.12,,47.59359,-54.27349
2019-01-27 14:50:00+00:00,142.0,137.0,6.14,7.14,,47.59359,-54.27349
2019-01-27 15:00:00+00:00,146.0,136.0,6.51,7.48,,47.59359,-54.27349
2019-01-27 15:10:00+00:00,145.0,144.0,5.89,7.01,,47.59359,-54.27349
2019-01-27 15:20:00+00:00,150.0,153.0,6.62,7.19,,47.59359,-54.27349
2019-01-27 15:30:00+00:00,150.0,153.0,6.76,7.63,,47.59359,-54.27349
2019-01-27 15:40:00+00:00,146.0,149.0,5.71,6.54,,47.59359,-54.27349
2019-01-27 15:50:00+00:00,140.0,141.0,6.24,7.45,,47.59359,-54.27349
2019-01-27 16:00:00+00:00,143.0,140.0,5.57,6.75,,47.59359,-54.27349
2019-01-27 16:10:00+00:00,140.0,138.0,5.76,7.32,,47.59359,-54.27349
2019-01-27 16:20:00+00:00,146.0,149.0,6.4,7.57,,47.59359,-54.27349
2019-01-27 16:30:00+00:00,140.0,133.0,5.17,6.51,,47.59359,-54.27349
2019-01-27 16:40:00+00:00,152.0,154.0,5.98,6.51,,47.59359,-54.27349
2019-01-27 16:50:00+00:00,154.0,157.0,5.7,6.45,,47.59359,-54.27349
2019-01-27 17:00:00+00:00,154.0,153.0,5.61,6.17,,47.59359,-54.27349
2019-01-27 17:10:00+00:00,149.0,153.0,5.69,5.99,,47.59359,-54.27349
2019-01-27 17:20:00+00:00,144.0,144.0,4.68,5.5,,47.59359,-54.27349
2019-01-27 17:30:00+00:00,135.0,132.0,4.85,6.08,,47.59359,-54.27349
2019-01-27 17:40:00+00:00,145.0,144.0,4.3,5.18,,47.59359,-54.27349
2019-01-27 17:50:00+00:00,142.0,149.0,3.67,4.42,,47.59359,-54.27349
2019-01-27 18:00:00+00:00,152.0,146.0,3.88,4.29,,47.59359,-54.27349
2019-01-27 18:10:00+00:00,148.0,144.0,3.5,4.13,,47.59359,-54.27349
2019-01-27 18:20:00+00:00,136.0,131.0,3.57,4.34,,47.59359,-54.27349
2019-01-27 18:30:00+00:00,136.0,133.0,3.82,4.14,,47.59359,-54.27349
2019-01-27 18:40:00+00:00,160.0,165.0,2.92,3.1,,47.59359,-54.27349
2019-01-27 18:50:00+00:00,145.0,146.0,2.44,2.97,,47.59359,-54.27349
2019-01-27 19:00:00+00:00,149.0,147.0,2.82,3.56,,47.59359,-54.27349
2019-01-27 19:10:00+00:00,158.0,152.0,2.24,2.45,,47.59359,-54.27349
2019-01-27 19:20:00+00:00,148.0,146.0,2.17,2.83,,47.59359,-54.27349
2019-01-27 19:30:00+00:00,142.0,138.0,2.41,2.96,,47.59359,-54.27349
2019-01-27 19:40:00+00:00,160.0,138.0,2.3,2.87,,47.59359,-54.27349
2019-01-27 19:50:00+00:00,137.0,138.0,3.86,4.23,,47.59359,-54.27349
2019-01-27 20:00:00+00:00,140.0,139.0,3.5,4.06,,47.59359,-54.27349
2019-01-27 20:10:00+00:00,143.0,145.0,3.52,4.4,,47.59359,-54.27349
2019-01-27 20:20:00+00:00,140.0,145.0,2.58,2.9,,47.59359,-54.27349
2019-01-27 20:30:00+00:00,140.0,139.0,2.11,2.38,,47.59359,-54.27349
2019-01-27 20:40:00+00:00,140.0,146.0,2.61,3.05,,47.59359,-54.27349
2019-01-27 20:50:00+00:00,136.0,127.0,1.93,2.29,,47.59359,-54.27349
2019-01-27 21:00:00+00:00,139.0,138.0,1.82,2.25,,47.59359,-54.27349
2019-01-27 21:10:00+00:00,107.0,91.0,0.94,1.24,,47.59359,-54.27349
2019-01-27 21:20:00+00:00,87.0,88.0,1.83,2.04,,47.59359,-54.27349
2019-01-27 21:30:00+00:00,91.0,91.0,2.65,3.03,,47.59359,-54.27349
2019-01-27 21:40:00+00:00,86.0,83.0,3.06,3.8,,47.59359,-54.27349
2019-01-27 21:50:00+00:00,94.0,82.0,2.67,4.28,,47.59359,-54.27349
2019-01-27 22:00:00+00:00,89.0,106.0,2.57,3.26,,47.59359,-54.27349
2019-01-27 22:10:00+00:00,95.0,101.0,2.73,3.49,,47.59359,-54.27349
2019-01-27 22:20:00+00:00,121.0,121.0,2.29,3.58,,47.59359,-54.27349
2019-01-27 22:30:00+00:00,90.0,110.0,2.59,4.09,,47.59359,-54.27349
2019-01-27 22:40:00+00:00,108.0,70.0,1.91,3.98,,47.59359,-54.27349
2019-01-27 22:50:00+00:00,127.0,135.0,3.11,4.23,,47.59359,-54.27349
2019-01-27 23:00:00+00:00,133.0,133.0,3.88,4.28,,47.59359,-54.27349
2019-01-27 23:10:00+00:00,130.0,131.0,3.36,4.36,,47.59359,-54.27349
2019-01-27 23:20:00+00:00,138.0,140.0,3.63,4.02,,47.59359,-54.27349
2019-01-27 23:30:00+00:00,145.0,146.0,3.6,4.46,,47.59359,-54.27349
2019-01-27 23:40:00+00:00,147.0,152.0,3.57,4.39,,47.59359,-54.27349
2019-01-27 23:50:00+00:00,151.0,152.0,4.03,4.88,,47.59359,-54.27349
